Location: Pedholt
(56.0260°N, 10.2097°E)
Time: 03:54:13
(UTC+00:00)

SR - Pass Details

Date: 04 August 2021
Orbit: 581 x 874 km, 66.7° (Epoch: 21 September)

Event Time Altitude Azimuth Distance (km) Brightness Sun altitude
Rises 08:07:18 0° 274° (W) 3,355 ? 36.2°
Reaches altitude 10° 08:10:10 10° 286° (WNW) 2,380 ? 36.6°
Maximum altitude 08:14:51 28° 345° (NNW) 1,400 ? 37.2°
Drops below altitude 10° 08:19:14 10° 45° (NE) 2,214 ? 37.7°
Sets 08:21:48 0° 57° (ENE) 3,082 ? 38.0°
